Погода в Междуреченском

Россия / Архангельская область     64°02′52″N   44°25′11″E
темп.,
°C
ветер,
м/с
пор.,
м/с
влажн.,
%
обл.,
%
осадки,
мм/ч
давл.,
гПа
погр.,
м
4 июля, пн
пн400:00+13юв2262100 0.0 101713
03:00+12ююв227156 0.0 101724
06:00+17ю22575 0.0 1017193
09:00+23ю12395 0.0 1017779
12:00+27ююз12281 0.0 10161607
15:00+28зюз12270 0.0 10152015
18:00+27юз12300 0.0 10141966
21:00+21ююв22520 0.0 101311
5 июля, вт
вт500:00+17ю22644 0.0 101415
03:00+16юз22706 0.0 101432
06:00+20ююз255585 0.0 1014224
09:00+26юз243930 0.0 1013825
12:00+29юз333131 0.0 10122271
15:00+30юз33275 0.0 10102704
18:00+29ююз34325 0.0 10092511
21:00+22з49618 0.0 1009424
6 июля, ср
ср600:00+17з1192100 0.4 100911
03:00+17ю2494100 0.5 100985
06:00+19ююз378565 0.0 1008380
09:00+24юз465713 0.0 10081249
12:00+27зюз574271 0.0 10082096
15:00+27зюз4639100 0.0 10071865
18:00+24юз244999 0.0 1008143
21:00+20зюз2262100 0.0 100940
7 июля, чт
чт700:00+16з226196 0.0 100923
03:00+14юз117224 0.0 101011
06:00+18юз1259100 0.0 1010172
09:00+20сз3657100 0.0 1009541
12:00+14ссв2494100 6.1 1010194
15:00+13ссз2498100 21.2 1010251
18:00+14зсз249599 1.1 1011309
21:00+14зюз22973 1.2 101250
8 июля, пт
пт800:00+12ю11974 0.0 101212
03:00+12ююз23978 0.0 101363
06:00+15ююв3692100 0.0 1013216
09:00+20ююз366224 0.3 1012769
12:00+21юз585170 0.4 10121435
15:00+23юз593865 0.4 10112672
18:00+22зюз384910 0.0 10111593
21:00+16юз227374 0.0 101229